• en France
  • Liste des pays
  • À 7 jours
  • Température de l'eau
  • Carte satellitaire
  • Carte météo
  • Widgets météo
  • user-avatar
    Se connecter

    Météo par heure à Irganay

    Ce jour, 21 Août, Mardi

    Heure Température Précipitation Vent Pression Humidité
    00:00 +18°C° 0 mm 2 m/s 713 mmHg 76%
    01:00 +18°C° 0 mm 2 m/s 713 mmHg 75%
    02:00 +18°C° 0 mm 3 m/s 713 mmHg 74%
    03:00 +18°C° 0 mm 3 m/s 713 mmHg 75%
    04:00 +18°C° 0 mm 3 m/s 713 mmHg 74%
    05:00 +18°C° 0 mm 3 m/s 713 mmHg 74%
    06:00 +18°C° 0 mm 3 m/s 713 mmHg 73%
    07:00 +21°C° 0 mm 3 m/s 713 mmHg 66%
    08:00 +24°C° 0 mm 3 m/s 713 mmHg 59%
    09:00 +27°C° 0 mm 3 m/s 713 mmHg 51%
    10:00 +27°C° 0 mm 3 m/s 713 mmHg 50%
    11:00 +28°C° 0 mm 3 m/s 713 mmHg 49%
    12:00 +29°C° 0 mm 4 m/s 713 mmHg 47%
    13:00 +29°C° 0,1 mm 4 m/s 713 mmHg 49%
    14:00 +29°C° 0,1 mm 4 m/s 713 mmHg 51%
    15:00 +29°C° 0,1 mm 4 m/s 712 mmHg 53%
    16:00 +28°C° 0,1 mm 3 m/s 712 mmHg 59%
    17:00 +27°C° 0,1 mm 3 m/s 712 mmHg 64%
    18:00 +25°C° 0,1 mm 3 m/s 712 mmHg 70%
    19:00 +24°C° 0 mm 2 m/s 712 mmHg 73%
    20:00 +23°C° 0 mm 2 m/s 712 mmHg 77%
    21:00 +21°C° 0 mm 2 m/s 712 mmHg 80%
    22:00 +20°C° 0 mm 2 m/s 712 mmHg 78%
    23:00 +20°C° 0 mm 2 m/s 712 mmHg 76%

    Demain, 22 Août, Mercredi

    Heure Température Précipitation Vent Pression Humidité
    00:00 +20°C° 0 mm 2 m/s 711 mmHg 74%
    01:00 +20°C° 0 mm 2 m/s 711 mmHg 71%
    02:00 +20°C° 0 mm 2 m/s 711 mmHg 69%
    03:00 +20°C° 0 mm 2 m/s 711 mmHg 66%
    04:00 +20°C° 0 mm 2 m/s 711 mmHg 64%
    05:00 +20°C° 0 mm 2 m/s 711 mmHg 61%
    06:00 +21°C° 0 mm 2 m/s 711 mmHg 59%
    07:00 +24°C° 0 mm 1 m/s 712 mmHg 55%
    08:00 +25°C° 0 mm 1 m/s 712 mmHg 52%
    09:00 +27°C° 0 mm 1 m/s 712 mmHg 48%
    10:00 +28°C° 0 mm 1 m/s 712 mmHg 47%
    11:00 +29°C° 0 mm 2 m/s 712 mmHg 47%
    12:00 +30°C° 0 mm 2 m/s 712 mmHg 47%
    13:00 +30°C° 0,3 mm 2 m/s 711 mmHg 49%
    14:00 +29°C° 0,3 mm 2 m/s 711 mmHg 51%
    15:00 +29°C° 0,3 mm 3 m/s 711 mmHg 54%
    16:00 +28°C° 0,4 mm 2 m/s 711 mmHg 59%
    17:00 +27°C° 0,4 mm 2 m/s 711 mmHg 65%
    18:00 +26°C° 0,4 mm 1 m/s 711 mmHg 70%
    19:00 +25°C° 0,3 mm 1 m/s 711 mmHg 73%
    20:00 +24°C° 0,3 mm 1 m/s 712 mmHg 76%
    21:00 +23°C° 0,3 mm 1 m/s 712 mmHg 78%
    22:00 +23°C° 0,3 mm 2 m/s 712 mmHg 78%
    23:00 +21°C° 0,3 mm 2 m/s 712 mmHg 79%

    Après-demain, 23 Août, Jeudi

    Heure Température Précipitation Vent Pression Humidité
    00:00 +21°C° 0,3 mm 2 m/s 712 mmHg 79%
    01:00 +21°C° 0,1 mm 2 m/s 712 mmHg 79%
    02:00 +20°C° 0,1 mm 2 m/s 712 mmHg 79%
    03:00 +20°C° 0,1 mm 2 m/s 712 mmHg 79%
    04:00 +20°C° 0 mm 2 m/s 712 mmHg 78%
    05:00 +21°C° 0 mm 2 m/s 712 mmHg 77%
    06:00 +21°C° 0 mm 2 m/s 712 mmHg 76%
    07:00 +24°C° 0 mm 2 m/s 713 mmHg 69%
    08:00 +25°C° 0 mm 2 m/s 713 mmHg 63%
    09:00 +27°C° 0 mm 2 m/s 713 mmHg 56%
    10:00 +28°C° 0,1 mm 2 m/s 713 mmHg 55%
    11:00 +28°C° 0,1 mm 3 m/s 713 mmHg 53%
    12:00 +29°C° 0,1 mm 3 m/s 713 mmHg 52%
    13:00 +29°C° 0,4 mm 3 m/s 713 mmHg 53%
    14:00 +28°C° 0,4 mm 3 m/s 713 mmHg 55%
    15:00 +28°C° 0,4 mm 3 m/s 713 mmHg 56%
    16:00 +27°C° 0,1 mm 3 m/s 713 mmHg 60%
    17:00 +26°C° 0,1 mm 2 m/s 713 mmHg 64%
    18:00 +25°C° 0,1 mm 2 m/s 713 mmHg 68%
    19:00 +24°C° 0 mm 2 m/s 713 mmHg 73%
    20:00 +23°C° 0 mm 1 m/s 713 mmHg 77%
    21:00 +21°C° 0 mm 1 m/s 713 mmHg 81%
    22:00 +21°C° 0 mm 1 m/s 713 mmHg 81%
    23:00 +21°C° 0 mm 1 m/s 713 mmHg 80%

    24 Août, Vendredi

    Heure Température Précipitation Vent Pression Humidité
    00:00 +21°C° 0 mm 1 m/s 713 mmHg 80%
    01:00 +21°C° 0 mm 1 m/s 713 mmHg 79%
    02:00 +20°C° 0 mm 1 m/s 713 mmHg 79%
    03:00 +20°C° 0 mm 1 m/s 713 mmHg 78%
    04:00 +20°C° 0 mm 1 m/s 713 mmHg 78%
    05:00 +21°C° 0 mm 1 m/s 713 mmHg 77%
    06:00 +21°C° 0 mm 1 m/s 713 mmHg 77%
    07:00 +23°C° 0 mm 2 m/s 714 mmHg 71%
    08:00 +24°C° 0 mm 2 m/s 714 mmHg 66%
    09:00 +26°C° 0 mm 3 m/s 714 mmHg 60%
    10:00 +27°C° 0 mm 3 m/s 714 mmHg 59%
    11:00 +27°C° 0 mm 4 m/s 714 mmHg 58%
    12:00 +28°C° 0 mm 4 m/s 713 mmHg 57%
    13:00 +28°C° 0,1 mm 4 m/s 713 mmHg 60%
    14:00 +27°C° 0,1 mm 4 m/s 713 mmHg 62%
    15:00 +27°C° 0,1 mm 4 m/s 713 mmHg 64%
    16:00 +26°C° 0,1 mm 4 m/s 713 mmHg 67%
    17:00 +25°C° 0,1 mm 3 m/s 712 mmHg 71%
    18:00 +24°C° 0,1 mm 3 m/s 712 mmHg 74%
    19:00 +23°C° 0,1 mm 2 m/s 713 mmHg 77%
    20:00 +21°C° 0,1 mm 2 m/s 713 mmHg 79%
    21:00 +19°C° 0,1 mm 2 m/s 713 mmHg 82%
    22:00 +19°C° 0 mm 2 m/s 713 mmHg 81%
    23:00 +19°C° 0 mm 2 m/s 713 mmHg 79%

    25 Août, Samedi

    Heure Température Précipitation Vent Pression Humidité
    00:00 +19°C° 0 mm 2 m/s 712 mmHg 78%
    01:00 +19°C° 0 mm 2 m/s 712 mmHg 77%
    02:00 +18°C° 0 mm 2 m/s 712 mmHg 76%
    03:00 +18°C° 0 mm 2 m/s 712 mmHg 75%
    04:00 +18°C° 0 mm 2 m/s 712 mmHg 74%
    05:00 +19°C° 0 mm 2 m/s 712 mmHg 74%
    06:00 +19°C° 0 mm 2 m/s 712 mmHg 73%
    07:00 +21°C° 0 mm 2 m/s 712 mmHg 67%
    08:00 +24°C° 0 mm 3 m/s 712 mmHg 61%
    09:00 +26°C° 0 mm 3 m/s 713 mmHg 55%
    10:00 +27°C° 0 mm 3 m/s 713 mmHg 54%
    11:00 +28°C° 0 mm 4 m/s 712 mmHg 52%
    12:00 +29°C° 0 mm 4 m/s 712 mmHg 51%
    13:00 +29°C° 0 mm 4 m/s 712 mmHg 52%
    14:00 +28°C° 0 mm 4 m/s 712 mmHg 53%
    15:00 +28°C° 0 mm 4 m/s 712 mmHg 54%
    16:00 +27°C° 0 mm 4 m/s 712 mmHg 59%
    17:00 +26°C° 0 mm 4 m/s 712 mmHg 63%
    18:00 +25°C° 0 mm 3 m/s 712 mmHg 67%
    19:00 +22°C° 0 mm 3 m/s 712 mmHg 70%
    20:00 +21°C° 0 mm 3 m/s 712 mmHg 73%
    21:00 +20°C° 0 mm 2 m/s 712 mmHg 76%
    22:00 +20°C° 0 mm 2 m/s 712 mmHg 74%
    23:00 +20°C° 0 mm 2 m/s 711 mmHg 71%

    26 Août, Dimanche

    Heure Température Précipitation Vent Pression Humidité
    00:00 +19°C° 0 mm 2 m/s 711 mmHg 69%
    01:00 +19°C° 0 mm 2 m/s 711 mmHg 67%
    02:00 +19°C° 0 mm 2 m/s 711 mmHg 65%
    03:00 +19°C° 0 mm 2 m/s 711 mmHg 63%
    04:00 +19°C° 0 mm 2 m/s 711 mmHg 62%
    05:00 +19°C° 0 mm 2 m/s 711 mmHg 61%
    06:00 +20°C° 0 mm 2 m/s 711 mmHg 60%
    07:00 +22°C° 0 mm 3 m/s 711 mmHg 53%
    08:00 +26°C° 0 mm 3 m/s 711 mmHg 47%
    09:00 +28°C° 0 mm 3 m/s 711 mmHg 40%
    10:00 +29°C° 0 mm 4 m/s 711 mmHg 39%
    11:00 +30°C° 0 mm 4 m/s 710 mmHg 39%
    12:00 +32°C° 0 mm 4 m/s 710 mmHg 38%
    13:00 +32°C° 0 mm 4 m/s 710 mmHg 40%
    14:00 +32°C° 0 mm 5 m/s 709 mmHg 43%
    15:00 +30°C° 0 mm 5 m/s 709 mmHg 45%
    16:00 +29°C° 0 mm 4 m/s 709 mmHg 50%
    17:00 +27°C° 0 mm 4 m/s 709 mmHg 56%
    18:00 +26°C° 0 mm 3 m/s 709 mmHg 62%
    19:00 +25°C° 0 mm 3 m/s 709 mmHg 63%
    20:00 +22°C° 0 mm 3 m/s 709 mmHg 65%
    21:00 +21°C° 0 mm 2 m/s 709 mmHg 67%
    22:00 +21°C° 0 mm 2 m/s 709 mmHg 64%
    23:00 +21°C° 0 mm 2 m/s 709 mmHg 61%
    Voir plus